• In Czech Republic
  • List of Countries
  • For 7 days
  • Water Temperature
  • Satellite Maps
  • Weather Map
  • Weather Widgets
  • user-avatar
    Login

    Hourly Weather Benito Juarez

    Today, 25 November, Saturday

    Time Temperature Precipitation Wind Pressure Humidity
    00:00 +9°C° 0 mm 1 mps 563 mmHg 75%
    01:00 +8°C° 0 mm 1 mps 563 mmHg 76%
    02:00 +8°C° 0 mm 1 mps 562 mmHg 76%
    03:00 +8°C° 0 mm 1 mps 562 mmHg 75%
    04:00 +7°C° 0 mm 1 mps 562 mmHg 75%
    05:00 +7°C° 0 mm 1 mps 562 mmHg 74%
    06:00 +9°C° 0 mm 1 mps 563 mmHg 64%
    07:00 +11°C° 0 mm 1 mps 565 mmHg 55%
    08:00 +13°C° 0 mm 1 mps 566 mmHg 46%
    09:00 +15°C° 0 mm 1 mps 567 mmHg 39%
    10:00 +18°C° 0 mm 1 mps 567 mmHg 32%
    11:00 +18°C° 0 mm 2 mps 568 mmHg 24%
    12:00 +19°C° 0 mm 2 mps 568 mmHg 25%
    13:00 +19°C° 0 mm 2 mps 568 mmHg 25%
    14:00 +20°C° 0 mm 2 mps 567 mmHg 26%
    15:00 +18°C° 0 mm 2 mps 567 mmHg 35%
    16:00 +16°C° 0 mm 2 mps 566 mmHg 45%
    17:00 +14°C° 0 mm 2 mps 565 mmHg 55%
    18:00 +13°C° 0 mm 1 mps 565 mmHg 59%
    19:00 +12°C° 0 mm 1 mps 565 mmHg 64%
    20:00 +11°C° 0 mm 1 mps 565 mmHg 69%
    21:00 +11°C° 0 mm 1 mps 565 mmHg 68%
    22:00 +10°C° 0 mm 1 mps 565 mmHg 67%
    23:00 +10°C° 0 mm 1 mps 565 mmHg 67%

    Tomorrow, 26 November, Sunday

    Time Temperature Precipitation Wind Pressure Humidity
    00:00 +9°C° 0 mm 1 mps 565 mmHg 64%
    01:00 +9°C° 0 mm 1 mps 564 mmHg 62%
    02:00 +7°C° 0 mm 2 mps 564 mmHg 60%
    03:00 +7°C° 0 mm 2 mps 564 mmHg 58%
    04:00 +7°C° 0 mm 2 mps 564 mmHg 56%
    05:00 +6°C° 0 mm 2 mps 564 mmHg 55%
    06:00 +8°C° 0 mm 3 mps 565 mmHg 49%
    07:00 +10°C° 0 mm 3 mps 567 mmHg 43%
    08:00 +11°C° 0 mm 3 mps 568 mmHg 36%
    09:00 +13°C° 0 mm 4 mps 569 mmHg 33%
    10:00 +15°C° 0 mm 4 mps 569 mmHg 29%
    11:00 +16°C° 0 mm 5 mps 570 mmHg 25%
    12:00 +17°C° 0 mm 4 mps 569 mmHg 27%
    13:00 +17°C° 0 mm 4 mps 569 mmHg 28%
    14:00 +17°C° 0 mm 4 mps 568 mmHg 30%
    15:00 +14°C° 0 mm 3 mps 567 mmHg 38%
    16:00 +12°C° 0 mm 3 mps 567 mmHg 46%
    17:00 +10°C° 0 mm 3 mps 566 mmHg 55%
    18:00 +9°C° 0 mm 3 mps 566 mmHg 62%
    19:00 +8°C° 0 mm 3 mps 566 mmHg 69%
    20:00 +7°C° 0 mm 3 mps 566 mmHg 77%
    21:00 +7°C° 0 mm 3 mps 566 mmHg 78%
    22:00 +7°C° 0 mm 2 mps 566 mmHg 79%
    23:00 +6°C° 0 mm 2 mps 565 mmHg 80%

    Day after tomorrow, 27 November, Monday

    Time Temperature Precipitation Wind Pressure Humidity
    00:00 +6°C° 0 mm 2 mps 565 mmHg 81%
    01:00 +6°C° 0 mm 2 mps 564 mmHg 81%
    02:00 +6°C° 0 mm 2 mps 564 mmHg 82%
    03:00 +5°C° 0 mm 2 mps 564 mmHg 83%
    04:00 +5°C° 0 mm 2 mps 564 mmHg 85%
    05:00 +5°C° 0 mm 2 mps 564 mmHg 86%
    06:00 +6°C° 0 mm 2 mps 565 mmHg 79%
    07:00 +8°C° 0 mm 2 mps 566 mmHg 72%
    08:00 +10°C° 0 mm 2 mps 567 mmHg 65%
    09:00 +12°C° 0 mm 2 mps 567 mmHg 57%
    10:00 +14°C° 0 mm 2 mps 568 mmHg 48%
    11:00 +16°C° 0 mm 2 mps 568 mmHg 40%
    12:00 +16°C° 0 mm 2 mps 568 mmHg 39%
    13:00 +17°C° 0 mm 2 mps 567 mmHg 39%
    14:00 +17°C° 0 mm 2 mps 567 mmHg 38%
    15:00 +15°C° 0 mm 2 mps 566 mmHg 47%
    16:00 +14°C° 0 mm 2 mps 565 mmHg 55%
    17:00 +12°C° 0 mm 2 mps 565 mmHg 64%
    18:00 +12°C° 0 mm 2 mps 565 mmHg 69%
    19:00 +11°C° 0 mm 1 mps 565 mmHg 74%
    20:00 +10°C° 0 mm 1 mps 565 mmHg 79%
    21:00 +10°C° 0 mm 1 mps 565 mmHg 81%
    22:00 +9°C° 0 mm 1 mps 564 mmHg 82%
    23:00 +9°C° 0 mm 1 mps 564 mmHg 84%

    28 November, Tuesday

    Time Temperature Precipitation Wind Pressure Humidity
    00:00 +8°C° 0 mm 1 mps 563 mmHg 84%
    01:00 +8°C° 0 mm 1 mps 563 mmHg 84%
    02:00 +7°C° 0 mm 1 mps 562 mmHg 84%
    03:00 +7°C° 0 mm 1 mps 562 mmHg 83%
    04:00 +7°C° 0 mm 1 mps 562 mmHg 83%
    05:00 +7°C° 0 mm 1 mps 562 mmHg 82%
    06:00 +9°C° 0 mm 1 mps 563 mmHg 71%
    07:00 +11°C° 0 mm 1 mps 565 mmHg 60%
    08:00 +13°C° 0 mm 1 mps 566 mmHg 49%
    09:00 +14°C° 0 mm 1 mps 567 mmHg 42%
    10:00 +16°C° 0 mm 1 mps 567 mmHg 35%
    11:00 +18°C° 0 mm 2 mps 568 mmHg 28%
    12:00 +18°C° 0 mm 2 mps 567 mmHg 29%
    13:00 +19°C° 0 mm 2 mps 567 mmHg 30%
    14:00 +19°C° 0 mm 2 mps 567 mmHg 31%
    15:00 +17°C° 0 mm 2 mps 566 mmHg 40%
    16:00 +16°C° 0 mm 2 mps 565 mmHg 50%
    17:00 +14°C° 0 mm 2 mps 565 mmHg 59%
    18:00 +13°C° 0 mm 1 mps 565 mmHg 65%
    19:00 +12°C° 0 mm 1 mps 565 mmHg 71%
    20:00 +10°C° 0 mm 0 mps 565 mmHg 77%
    21:00 +10°C° 0 mm 0 mps 565 mmHg 78%
    22:00 +9°C° 0 mm 0 mps 565 mmHg 80%
    23:00 +9°C° 0 mm 0 mps 564 mmHg 81%

    29 November, Wednesday

    Time Temperature Precipitation Wind Pressure Humidity
    00:00 +9°C° 0 mm 1 mps 564 mmHg 82%
    01:00 +9°C° 0 mm 1 mps 564 mmHg 83%
    02:00 +9°C° 0 mm 1 mps 563 mmHg 84%
    03:00 +8°C° 0 mm 1 mps 564 mmHg 85%
    04:00 +8°C° 0 mm 1 mps 564 mmHg 87%
    05:00 +7°C° 0 mm 2 mps 564 mmHg 88%
    06:00 +8°C° 0 mm 2 mps 565 mmHg 80%
    07:00 +9°C° 0 mm 2 mps 566 mmHg 72%
    08:00 +12°C° 0 mm 2 mps 567 mmHg 64%
    09:00 +13°C° 0 mm 2 mps 568 mmHg 55%
    10:00 +14°C° 0 mm 3 mps 568 mmHg 45%
    11:00 +17°C° 0 mm 3 mps 569 mmHg 35%
    12:00 +17°C° 0 mm 3 mps 569 mmHg 36%
    13:00 +17°C° 0 mm 3 mps 568 mmHg 37%
    14:00 +18°C° 0 mm 3 mps 568 mmHg 38%
    15:00 +16°C° 0 mm 3 mps 567 mmHg 47%
    16:00 +13°C° 0 mm 3 mps 567 mmHg 56%
    17:00 +12°C° 0 mm 3 mps 566 mmHg 65%
    18:00 +12°C° 0 mm 2 mps 566 mmHg 70%
    19:00 +10°C° 0 mm 2 mps 566 mmHg 75%
    20:00 +9°C° 0 mm 2 mps 566 mmHg 80%
    21:00 +9°C° 0 mm 2 mps 566 mmHg 82%
    22:00 +8°C° 0 mm 2 mps 566 mmHg 84%
    23:00 +8°C° 0 mm 2 mps 565 mmHg 86%

    30 November, Thursday

    Time Temperature Precipitation Wind Pressure Humidity
    00:00 +7°C° 0 mm 2 mps 565 mmHg 86%
    01:00 +7°C° 0 mm 2 mps 565 mmHg 86%
    02:00 +7°C° 0 mm 2 mps 564 mmHg 87%
    03:00 +8°C° 0 mm 1 mps 564 mmHg 86%
    04:00 +7°C° 0 mm 1 mps 564 mmHg 85%
    05:00 +7°C° 0 mm 1 mps 564 mmHg 85%
    06:00 +9°C° 0 mm 1 mps 565 mmHg 76%
    07:00 +11°C° 0 mm 1 mps 566 mmHg 67%
    08:00 +13°C° 0 mm 1 mps 568 mmHg 59%
    09:00 +14°C° 0 mm 1 mps 568 mmHg 52%
    10:00 +16°C° 0 mm 2 mps 568 mmHg 45%
    11:00 +18°C° 0 mm 2 mps 569 mmHg 38%
    12:00 +18°C° 0 mm 2 mps 568 mmHg 38%
    13:00 +18°C° 0 mm 2 mps 568 mmHg 39%
    14:00 +19°C° 0 mm 3 mps 568 mmHg 39%
    15:00 +17°C° 0 mm 2 mps 567 mmHg 48%
    16:00 +16°C° 0 mm 2 mps 566 mmHg 56%
    17:00 +14°C° 0 mm 2 mps 566 mmHg 64%
    18:00 +13°C° 0 mm 2 mps 566 mmHg 69%
    19:00 +12°C° 0 mm 2 mps 566 mmHg 73%
    20:00 +12°C° 0 mm 1 mps 566 mmHg 78%
    21:00 +11°C° 0 mm 1 mps 566 mmHg 80%
    22:00 +11°C° 0 mm 1 mps 566 mmHg 82%
    23:00 +9°C° 0 mm 2 mps 565 mmHg 84%
    Show more